Regional Weather Roundup
Issued by NWS

Home | Current Version | Previous Version | Text Only | Print | Product List | Glossary On
Versions: 1 2 3 4 5 6 7 8 9 10 11 12 13 14 15 16 17 18 19 20 21 22 23 24 25 26 27 28 29 30 31 32 33 34 35 36 37 38 39 40 41 42 43 44 45 46 47 48 49 50
000
ASUS44 KBMX 272110
RWRAL

ALABAMA REGIONAL WEATHER ROUNDUP
NATIONAL WEATHER SERVICE BIRMINGHAM AL
400 PM CDT TUE SEP 27 2016

NOTE: "FAIR" INDICATES FEW OR NO CLOUDS BELOW 12,000 FEET
WITH NO SIGNIFICANT WEATHER AND/OR OBSTRUCTIONS TO VISIBILITY.

THE REMARK "TC" DENOTES TEMPERATURE IN DEGREES CELSIUS.

ALZ001>011-014-016>018-020-272200-
NORTH ALABAMA

CITY           SKY/WX    TMP DP  RH WIND       PRES   REMARKS
MUSCLE SHOALS  SUNNY     85  42  22 VRB7      29.94F
HUNTSVILLE     MOSUNNY   87  45  23 VRB7      29.91F
DECATUR        SUNNY     84  48  28 W12       29.92F
HALEYVILLE     FAIR      84  51  31 NW9       29.94F
GADSDEN        MOSUNNY   87  68  52 W13G18    29.89F HX  90
$$

ALZ012-013-022-023-030>036-040>044-272200-
WEST CENTRAL ALABAMA

CITY           SKY/WX    TMP DP  RH WIND       PRES   REMARKS
TUSCALOOSA     SUNNY     85  65  51 NW5       29.89F
$$

ALZ015-024>027-033>036-040>044-272200-
CENTRAL ALABAMA

CITY           SKY/WX    TMP DP  RH WIND       PRES   REMARKS
BIRMINGHAM     PTSUNNY   87  65  47 NW12      29.91F
MONTGOMERY     MOSUNNY   92  63  38 SW6       29.86F HX  93
SHELBY CO ARPT MOSUNNY   89  64  43 W7        29.89F HX  90
MAXWELL AFB    MOSUNNY   91  65  42 VRB2      29.86F HX  93
GREENVILLE     NOT AVBL
$$

ALZ019-021-028-029-037-038-045>048-272200-
EAST CENTRAL ALABAMA

CITY           SKY/WX    TMP DP  RH WIND       PRES   REMARKS
ANNISTON       MOSUNNY   90  62  39 W14       29.87F HX  90
ALEXANDER CITY MOSUNNY   83  78  85 CALM      29.90F HX  92
AUBURN         MOSUNNY   88  66  48 SW7       29.90F HX  90
$$

ALZ051>064-272200-
SOUTHWEST ALABAMA

CITY           SKY/WX    TMP DP  RH WIND       PRES   REMARKS
MOBILE         CLOUDY    86  71  60 W5        29.90F HX  91
BROOKLEY FIELD CLOUDY    79  74  84 SW7       29.91S
EVERGREEN      CLOUDY    85  73  67 CALM      29.89F HX  91
$$

ALZ049-050-065>069-272200-
SOUTHEAST ALABAMA

CITY           SKY/WX    TMP DP  RH WIND       PRES   REMARKS
DOTHAN         CLOUDY    84  71  65 CALM      29.92F
OZARK          CLOUDY    87  71  58 W5        29.88F HX  92
TROY           SUNNY     87  67  51 SW8       29.89F HX  90
EUFAULA        NOT AVBL
$$



USA.gov is the U.S. government's official web portal to all federal, state and local government web resources and services.